Indianapolis, IN

9:57 AM EDT on April 25, 2017 (GMT -0400)
Indianapolis Terry

Weather History for KTYQ - May, 2013

Change the Weather History Date:

Thursday, May 30, 2013

  Actual Average (KEYE) Record (KEYE)
Temperature  
Mean Temperature 77 °F -  
Max Temperature 85 °F 70 °F 90 °F (2011)
Min Temperature 70 °F 54 °F 48 °F (2003)
Cooling Degree Days 12    
Growing Degree Days 27 (Base 50)    
Moisture  
Dew Point 63 °F    
Average Humidity 60    
Maximum Humidity 72    
Minimum Humidity 49    
Precipitation  
Precipitation 0.09 in - - ()
Sea Level Pressure  
Sea Level Pressure 30.03 in    
Wind  
Wind Speed 11 mph (South)    
Max Wind Speed 23 mph    
Max Gust Speed 32 mph    
Visibility 10 miles    
Events Rain , Thunderstorm    
Averages and records for this station are not official NWS values.
T = Trace of Precipitation, MM = Missing Value Source: NWS Daily Summary

Daily Weather History Graph

Daily Weather History Graph

Search for Another Location

Airport or City:

Trip Planner

Search our weather history database for the weather conditions in past years. The results will help you decide how hot, cold, wet, or windy it might be!

Date:

Astronomy

May. 30, 2013 Rise Set
Actual Time 6:18 AM EDT 9:06 PM EDT
Civil Twilight 5:46 AM EDT 9:38 PM EDT
Nautical Twilight 5:06 AM EDT 10:19 PM EDT
Astronomical Twilight 4:20 AM EDT 11:05 PM EDT
Moon 1:07 AM EDT (5/30) 12:26 PM EDT (5/30)
Length of Visible Light 15h 51m
Length of Day
14h 47m
Waning Gibbous, 62% of the Moon is Illuminated
May 30
Waning Gibbous
May 31
Last Quarter
Jun 8
New
Jun 16
First Quarter
Jun 23
Full

Hourly Weather History & Observations

Time (EDT) Temp. Heat Index Dew Point Humidity Pressure Visibility Wind Dir Wind Speed Gust Speed Precip Events Conditions
12:15 AM 74.7 °F - 60.4 °F 61% 30.03 in 10.0 mi South 8.1 mph - N/A   Clear
12:35 AM 74.3 °F - 60.8 °F 63% 30.03 in 10.0 mi South 9.2 mph - N/A   Clear
12:55 AM 74.1 °F - 61.0 °F 63% 30.03 in 10.0 mi South 9.2 mph - N/A   Clear
1:15 AM 73.9 °F - 61.0 °F 64% 30.04 in 10.0 mi South 9.2 mph - N/A   Clear
1:35 AM 73.8 °F - 61.2 °F 65% 30.04 in 10.0 mi South 8.1 mph - N/A   Clear
1:55 AM 73.8 °F - 61.2 °F 65% 30.04 in 10.0 mi South 9.2 mph - N/A   Clear
2:35 AM 73.4 °F - 61.0 °F 65% 30.04 in 10.0 mi South 8.1 mph - N/A   Clear
2:55 AM 73.0 °F - 61.0 °F 66% 30.04 in 10.0 mi South 8.1 mph - N/A   Clear
3:15 AM 72.5 °F - 61.0 °F 67% 30.04 in 10.0 mi South 8.1 mph - N/A   Clear
3:35 AM 72.3 °F - 61.2 °F 68% 30.04 in 10.0 mi South 6.9 mph - N/A   Clear
3:55 AM 72.0 °F - 61.2 °F 69% 30.04 in 10.0 mi South 8.1 mph - N/A   Clear
4:15 AM 71.6 °F - 61.2 °F 70% 30.04 in 10.0 mi South 6.9 mph - N/A   Clear
4:35 AM 71.6 °F - 61.0 °F 69% 30.04 in 10.0 mi SSE 6.9 mph - N/A   Scattered Clouds
4:55 AM 71.1 °F - 61.0 °F 70% 30.04 in 10.0 mi South 6.9 mph - N/A   Scattered Clouds
5:15 AM 71.2 °F - 61.0 °F 70% 30.04 in 10.0 mi South 8.1 mph - N/A   Clear
5:35 AM 71.1 °F - 60.8 °F 70% 30.05 in 10.0 mi SSE 6.9 mph - N/A   Clear
5:55 AM 70.7 °F - 60.8 °F 71% 30.05 in 10.0 mi South 5.8 mph - N/A   Clear
6:15 AM 70.9 °F - 60.8 °F 70% 30.05 in 10.0 mi South 9.2 mph - N/A   Clear
6:35 AM 70.9 °F - 60.8 °F 70% 30.06 in 10.0 mi South 6.9 mph - N/A   Clear
6:55 AM 70.7 °F - 61.0 °F 71% 30.07 in 10.0 mi South 6.9 mph - N/A   Clear
7:15 AM 70.9 °F - 61.0 °F 71% 30.07 in 10.0 mi SSE 9.2 mph - N/A   Clear
7:35 AM 70.9 °F - 61.3 °F 72% 30.07 in 10.0 mi SSE 8.1 mph - N/A   Clear
7:55 AM 71.8 °F - 61.7 °F 70% 30.07 in 10.0 mi South 6.9 mph - N/A   Clear
8:15 AM 73.8 °F - 62.1 °F 67% 30.08 in 10.0 mi South 10.4 mph - N/A   Clear
8:35 AM 75.4 °F - 61.9 °F 63% 30.07 in 10.0 mi South 16.1 mph 21.9 mph N/A   Clear
8:55 AM 76.1 °F - 61.9 °F 61% 30.08 in 10.0 mi South 15.0 mph 24.2 mph N/A   Clear
9:15 AM 76.1 °F - 62.1 °F 62% 30.08 in 10.0 mi South 15.0 mph 21.9 mph N/A   Clear
9:35 AM 75.4 °F - 62.6 °F 64% 30.08 in 10.0 mi South 13.8 mph 20.7 mph N/A   Scattered Clouds
9:55 AM 77.2 °F - 63.5 °F 63% 30.08 in 10.0 mi South 11.5 mph 21.9 mph N/A   Clear
10:15 AM 77.7 °F - 63.3 °F 61% 30.07 in 10.0 mi South 17.3 mph - N/A   Clear
10:35 AM 78.6 °F - 63.9 °F 60% 30.07 in 10.0 mi South 16.1 mph 23.0 mph N/A   Mostly Cloudy
10:55 AM 79.9 °F - 63.7 °F 58% 30.07 in 10.0 mi South 13.8 mph 20.7 mph N/A   Scattered Clouds
11:15 AM 81.0 °F 82.5 °F 63.9 °F 56% 30.07 in 10.0 mi South 17.3 mph 23.0 mph N/A   Clear
11:35 AM 81.7 °F 82.9 °F 63.1 °F 53% 30.07 in 10.0 mi South 20.7 mph 32.2 mph N/A   Clear
11:55 AM 81.9 °F 83.1 °F 63.0 °F 53% 30.06 in 10.0 mi SSW 20.7 mph 31.1 mph N/A   Clear
12:15 PM 81.9 °F 83.1 °F 63.1 °F 53% 30.06 in 10.0 mi South 16.1 mph 29.9 mph N/A   Clear
12:35 PM 82.9 °F 84.0 °F 63.1 °F 51% 30.06 in 10.0 mi SSW 23.0 mph 31.1 mph N/A   Scattered Clouds
12:55 PM 82.9 °F 84.2 °F 63.7 °F 52% 30.06 in 10.0 mi South 21.9 mph 27.6 mph N/A   Scattered Clouds
1:15 PM 82.0 °F 83.3 °F 63.5 °F 53% 30.05 in 10.0 mi South 19.6 mph 28.8 mph N/A   Scattered Clouds
1:35 PM 83.5 °F 84.5 °F 63.3 °F 50% 30.05 in 10.0 mi SSW 21.9 mph 27.6 mph N/A   Scattered Clouds
1:55 PM 83.8 °F 84.9 °F 63.5 °F 50% 30.05 in 10.0 mi South 16.1 mph 27.6 mph N/A   Scattered Clouds
2:15 PM 84.2 °F 85.4 °F 63.9 °F 50% 30.04 in 10.0 mi SSW 21.9 mph 27.6 mph N/A   Mostly Cloudy
2:35 PM 84.6 °F 85.6 °F 63.7 °F 49% 30.04 in 10.0 mi South 17.3 mph 26.5 mph N/A   Scattered Clouds
2:55 PM 84.9 °F 86.1 °F 63.7 °F 49% 30.03 in 10.0 mi South 19.6 mph 25.3 mph N/A   Scattered Clouds
3:15 PM 84.2 °F 85.2 °F 63.0 °F 49% 30.03 in 10.0 mi South 18.4 mph 25.3 mph N/A Thunderstorm Thunderstorm
3:35 PM 77.4 °F - 66.0 °F 68% 30.03 in 10.0 mi SSW 12.7 mph - 0.09 in Rain , Thunderstorm Light Thunderstorms and Rain
3:55 PM 81.9 °F 84.4 °F 67.3 °F 61% 30.02 in 10.0 mi SSW 13.8 mph 19.6 mph 0.09 in   Clear
4:15 PM 83.7 °F 85.5 °F 65.5 °F 54% 30.01 in 10.0 mi SSW 13.8 mph 20.7 mph N/A   Clear
4:35 PM 84.4 °F 85.9 °F 64.2 °F 51% 30.00 in 10.0 mi SSW 13.8 mph 24.2 mph N/A   Clear
4:55 PM 84.6 °F 86.3 °F 64.9 °F 52% 29.99 in 10.0 mi South 17.3 mph 23.0 mph N/A   Clear
5:15 PM 83.1 °F 84.2 °F 63.3 °F 51% 29.99 in 10.0 mi SSW 20.7 mph 25.3 mph N/A   Scattered Clouds
5:35 PM 83.7 °F 84.9 °F 64.0 °F 51% 29.99 in 10.0 mi South 21.9 mph 27.6 mph N/A   Scattered Clouds
5:55 PM 84.2 °F 85.2 °F 63.3 °F 49% 29.98 in 10.0 mi South 13.8 mph 24.2 mph N/A   Clear
6:15 PM 84.0 °F 84.9 °F 62.8 °F 49% 29.98 in 10.0 mi South 19.6 mph 28.8 mph N/A   Scattered Clouds
6:35 PM 82.4 °F 83.2 °F 62.1 °F 50% 29.98 in 10.0 mi South 17.3 mph 25.3 mph N/A   Scattered Clouds
6:55 PM 81.3 °F 82.3 °F 62.2 °F 52% 29.98 in 10.0 mi South 17.3 mph 23.0 mph N/A   Scattered Clouds
7:15 PM 81.0 °F 82.2 °F 62.8 °F 54% 29.98 in 10.0 mi South 16.1 mph 24.2 mph N/A Thunderstorm Thunderstorm
7:35 PM 80.2 °F 81.8 °F 63.5 °F 57% 29.96 in 10.0 mi South 15.0 mph 24.2 mph N/A   Clear
7:55 PM 80.6 °F 82.0 °F 63.7 °F 56% 29.96 in 10.0 mi South 11.5 mph - N/A   Clear
8:15 PM 80.4 °F 82.0 °F 63.7 °F 57% 29.96 in 10.0 mi South 12.7 mph - N/A   Clear
8:35 PM 80.1 °F 81.6 °F 63.5 °F 57% 29.95 in 10.0 mi South 10.4 mph 20.7 mph N/A   Clear
8:55 PM 80.1 °F 81.6 °F 63.5 °F 57% 29.96 in 10.0 mi South 10.4 mph - N/A   Clear
9:15 PM 79.7 °F - 63.9 °F 58% 29.96 in 10.0 mi South 12.7 mph 18.4 mph N/A   Clear
9:35 PM 79.2 °F - 62.6 °F 57% 29.97 in 10.0 mi South 15.0 mph 24.2 mph N/A   Clear
9:55 PM 78.1 °F - 63.0 °F 60% 29.97 in 10.0 mi South 12.7 mph 19.6 mph N/A   Clear
10:15 PM 77.5 °F - 63.5 °F 62% 29.98 in 10.0 mi South 12.7 mph - N/A   Clear
10:35 PM 77.7 °F - 63.9 °F 62% 29.98 in 10.0 mi SSE 13.8 mph 21.9 mph N/A   Clear
10:55 PM 77.4 °F - 64.4 °F 64% 29.99 in 10.0 mi South 11.5 mph 19.6 mph N/A   Clear
11:15 PM 77.9 °F - 64.4 °F 63% 30.00 in 10.0 mi South 11.5 mph 23.0 mph N/A   Clear
11:35 PM 77.5 °F - 64.4 °F 64% 30.00 in 10.0 mi SSE 12.7 mph 18.4 mph N/A   Scattered Clouds
11:55 PM 77.4 °F - 64.4 °F 64% 30.00 in 10.0 mi South 11.5 mph 19.6 mph N/A   Scattered Clouds